Flag for U.S.A. Weather past 2 weeks in Fremont, California, U.S.A.

Now
52 °F

Overcast.


Feels Like: 49 °F
Forecast: 51 / 59 °F
Wind: 8 mph from Southeast

Location: Moffett Field

Current Time: Dec 17, 2014 at 8:41:46 PM

Latest Report: Dec 17, 2014 at 7:56 PM


Visibility: 10 mi

Pressure: 30.09 "Hg

Humidity: 93%

Dew point: 50 °F

Location of FremontLocation

Historic Weather in Fremont — Graph

°F

Fremont temperature yesterday

Maximum temperature yesterday: 62 °F (at 1:56 PM)
Minimum temperature yesterday: 51 °F (at 12:56 AM)
Average temperature yesterday: 54 °F

Past Weeks' High & Low Weather Summary

 TemperatureHumidityPressure
High69 °F (Dec 6, 1:56 PM)100% (Dec 6, 8:56 AM)30.24 "Hg (Dec 6, 8:56 AM)
Low43 °F (Dec 13, 6:56 AM)53% (Dec 8, 2:56 PM)29.57 "Hg (Dec 11, 7:56 AM)
Average57 °F86%30.00 "Hg
* Reported Dec 2 6:56 PM — Dec 17 6:56 PM, Fremont, Weather by CustomWeather, © 2014

Note: Actual official high and low records may vary slightly from our data, if they occured in-between our weather recording intervals... More about our weather records

Advertising

Fremont weather history for previous 24 hours

 ConditionsComfort  
Time TempWeatherWind HumidityBarometerVisibility
6:56 PM
Dec 17
53 °FLight rain. Mostly cloudy.7 mph93%30.08 "Hg10 mi
5:56 PM54 °FLight rain. Overcast.6 mph90%30.07 "Hg10 mi
4:56 PM55 °FLight rain. Mostly cloudy.5 mph80%30.06 "Hg8 mi
3:56 PM57 °FOvercast.6 mph67%30.05 "Hg10 mi
2:56 PM58 °FPartly sunny.No wind62%30.04 "Hg10 mi
1:56 PM57 °FLight rain. Mostly cloudy.No wind78%30.05 "Hg10 mi
12:56 PM57 °FSunny.5 mph78%30.07 "Hg10 mi
11:56 AM56 °FSunny.6 mph87%30.08 "Hg10 mi
10:56 AM56 °FSunny.3 mph84%30.11 "Hg10 mi
9:56 AM53 °FPassing clouds.6 mph89%30.10 "Hg10 mi
8:56 AM50 °FPartly sunny.3 mph93%30.08 "Hg10 mi
7:56 AM49 °FScattered clouds.6 mph97%30.05 "Hg10 mi
6:56 AM49 °FOvercast.5 mph93%30.03 "Hg10 mi
5:56 AM49 °FLight rain. Mostly cloudy.No wind93%30.02 "Hg10 mi
4:56 AM49 °FPassing clouds.3 mph93%30.00 "Hg10 mi
3:56 AM48 °FPassing clouds.6 mph96%29.99 "Hg10 mi
2:56 AM49 °FPassing clouds.5 mph97%29.99 "Hg8 mi
1:56 AM50 °FPartly cloudy.3 mph93%29.98 "Hg8 mi
12:56 AM51 °FPassing clouds.3 mph92%29.96 "Hg9 mi
11:56 PM
Dec 16
51 °FPassing clouds.No wind92%29.96 "Hg10 mi
10:56 PM51 °FPassing clouds.No wind92%29.96 "Hg10 mi
9:56 PM52 °FOvercast.3 mph93%29.94 "Hg10 mi
9:04 PM52 °FLight rain. Mostly cloudy.7 mph100%29.91 "Hg9 mi
8:56 PM53 °FLight rain. Mostly cloudy.3 mph96%29.91 "Hg9 mi
Weather by CustomWeather, © 2014

See weather overviewHow to use our weather pages